Weather in Ivaylovgrad

Bulgaria     41°31′39″N   26°07′28″E
temp.,
°C
wind,
m/s
gust,
m/s
humid.,
%
clouds,
%
prec.,
mm/h
press.,
hPa
HPBL,
m
19 april, mon
mon1900:00+10nw1287100 0.0 101664
03:00+9n118986 0.0 101525
06:00+8n228897 0.0 101579
09:00+9nne1290100 0.0 1014253
12:00+9ese1297100 1.1 1013435
15:00+8se1297100 2.1 1012381
18:00+8ese2498100 0.6 1010430
21:00+8ese1298100 0.8 1010186
20 april, tue
tue2000:00+8sse119894 0.3 1009152
03:00+6nw3694100 1.0 1009505
06:00+5nw489394 0.0 1010485
09:00+6nw4893100 0.5 1012858
12:00+6nw3791100 0.2 1014915
15:00+8nw3586100 0.3 1015854
18:00+8wnw2589100 0.9 1015434
21:00+6w229186 2.1 101721
21 april, wed
wed2100:00+5wsw22895 0.0 101713
03:00+5sw229110 0.0 101813
06:00+4wsw229232 0.0 101811
09:00+9sw12837 0.0 1019301
12:00+14sw11644 0.3 1018915
15:00+15wsw2357100 2.3 10181375
18:00+14wsw3366100 0.7 1017855
21:00+10wsw228349 0.8 101913
22 april, thu
thu2200:00+8w22870 0.0 102011
03:00+7wsw21860 0.0 102010
06:00+7w11851 0.0 102110
09:00+11e11730 0.0 1021230
12:00+16se33590 0.0 10211178
15:00+17s345227 0.6 10201793
18:00+16sw445931 0.0 1019878
21:00+10sw338199 0.0 102032
23 april, fri
fri2300:00+9sw227596 0.0 102021
03:00+9sw2272100 0.0 101914
06:00+10sw1167100 0.0 101812
09:00+13ssw1262100 0.0 1018223
12:00+17ssw345086 0.0 10171188
15:00+17sw565188 0.0 10161229
18:00+14sw3770100 0.0 1015487
21:00+12w3377100 0.0 101775